• In Belarus
  • List of Countries
  • For 7 days
  • Water Temperature
  • Satellite Maps
  • Weather Map
  • Weather Widgets
  • user-avatar
    Login

    Hourly Weather Bijsk

    Today, 11 December, Tuesday

    Time Temperature Precipitation Wind Pressure Humidity
    00:00 -12°C° 0 mm 1 mps 758 mmHg 75%
    01:00 -12°C° 0 mm 1 mps 758 mmHg 75%
    02:00 -12°C° 0 mm 1 mps 758 mmHg 75%
    03:00 -12°C° 0 mm 1 mps 758 mmHg 75%
    04:00 -12°C° 0 mm 1 mps 758 mmHg 74%
    05:00 -12°C° 0 mm 1 mps 758 mmHg 74%
    06:00 -12°C° 0 mm 1 mps 758 mmHg 73%
    07:00 -14°C° 0 mm 2 mps 758 mmHg 73%
    08:00 -13°C° 0 mm 2 mps 758 mmHg 72%
    09:00 -13°C° 0 mm 2 mps 758 mmHg 72%
    10:00 -12°C° 0 mm 2 mps 758 mmHg 73%
    11:00 -8°C° 0 mm 1 mps 757 mmHg 75%
    12:00 -7°C° 0 mm 1 mps 757 mmHg 76%
    13:00 -7°C° 0 mm 1 mps 757 mmHg 76%
    14:00 -7°C° 0 mm 1 mps 757 mmHg 76%
    15:00 -7°C° 0 mm 1 mps 757 mmHg 75%
    16:00 -8°C° 0 mm 1 mps 757 mmHg 74%
    17:00 -9°C° 0 mm 1 mps 757 mmHg 73%
    18:00 -9°C° 0 mm 1 mps 757 mmHg 71%
    19:00 -10°C° 0 mm 1 mps 757 mmHg 71%
    20:00 -10°C° 0 mm 1 mps 757 mmHg 71%
    21:00 -10°C° 0 mm 1 mps 757 mmHg 71%
    22:00 -10°C° 0 mm 1 mps 757 mmHg 72%
    23:00 -10°C° 0 mm 1 mps 757 mmHg 72%

    Tomorrow, 12 December, Wednesday

    Time Temperature Precipitation Wind Pressure Humidity
    00:00 -10°C° 0 mm 1 mps 757 mmHg 72%
    01:00 -11°C° 0 mm 1 mps 757 mmHg 72%
    02:00 -11°C° 0 mm 1 mps 756 mmHg 72%
    03:00 -11°C° 0 mm 1 mps 756 mmHg 73%
    04:00 -11°C° 0 mm 1 mps 756 mmHg 72%
    05:00 -11°C° 0 mm 1 mps 756 mmHg 72%
    06:00 -11°C° 0 mm 1 mps 756 mmHg 72%
    07:00 -11°C° 0 mm 1 mps 756 mmHg 72%
    08:00 -10°C° 0 mm 1 mps 756 mmHg 72%
    09:00 -10°C° 0 mm 1 mps 756 mmHg 73%
    10:00 -9°C° 0 mm 1 mps 756 mmHg 74%
    11:00 -7°C° 0 mm 1 mps 755 mmHg 75%
    12:00 -6°C° 0 mm 0 mps 755 mmHg 77%
    13:00 -6°C° 0 mm 0 mps 755 mmHg 78%
    14:00 -6°C° 0 mm 0 mps 755 mmHg 80%
    15:00 -6°C° 0 mm 0 mps 755 mmHg 81%
    16:00 -6°C° 0 mm 0 mps 755 mmHg 80%
    17:00 -6°C° 0 mm 0 mps 755 mmHg 78%
    18:00 -7°C° 0 mm 1 mps 755 mmHg 77%
    19:00 -7°C° 0 mm 1 mps 755 mmHg 77%
    20:00 -7°C° 0 mm 1 mps 755 mmHg 78%
    21:00 -7°C° 0 mm 1 mps 755 mmHg 78%
    22:00 -6°C° 0.1 mm 1 mps 755 mmHg 80%
    23:00 -6°C° 0.1 mm 1 mps 755 mmHg 82%

    Day after tomorrow, 13 December, Thursday

    Time Temperature Precipitation Wind Pressure Humidity
    00:00 -6°C° 0.1 mm 1 mps 755 mmHg 83%
    01:00 -6°C° 0.1 mm 1 mps 756 mmHg 85%
    02:00 -6°C° 0.1 mm 1 mps 756 mmHg 87%
    03:00 -6°C° 0.1 mm 1 mps 756 mmHg 90%
    04:00 -4°C° 0.2 mm 1 mps 756 mmHg 91%
    05:00 -4°C° 0.2 mm 1 mps 756 mmHg 93%
    06:00 -4°C° 0.2 mm 1 mps 756 mmHg 95%
    07:00 -6°C° 0.2 mm 2 mps 756 mmHg 95%
    08:00 -7°C° 0.2 mm 2 mps 757 mmHg 96%
    09:00 -7°C° 0.2 mm 2 mps 757 mmHg 96%
    10:00 -7°C° 0.1 mm 2 mps 757 mmHg 96%
    11:00 -7°C° 0.1 mm 2 mps 757 mmHg 95%
    12:00 -7°C° 0.1 mm 2 mps 757 mmHg 94%
    13:00 -8°C° 0.1 mm 2 mps 757 mmHg 94%
    14:00 -8°C° 0.1 mm 2 mps 757 mmHg 94%
    15:00 -9°C° 0.1 mm 2 mps 757 mmHg 94%
    16:00 -10°C° 0 mm 2 mps 758 mmHg 94%
    17:00 -10°C° 0 mm 1 mps 758 mmHg 95%
    18:00 -11°C° 0 mm 1 mps 758 mmHg 95%
    19:00 -11°C° 0 mm 1 mps 758 mmHg 95%
    20:00 -12°C° 0 mm 1 mps 758 mmHg 95%
    21:00 -12°C° 0 mm 1 mps 758 mmHg 94%
    22:00 -12°C° 0 mm 1 mps 758 mmHg 94%
    23:00 -12°C° 0 mm 1 mps 758 mmHg 94%

    14 December, Friday

    Time Temperature Precipitation Wind Pressure Humidity
    00:00 -12°C° 0 mm 1 mps 758 mmHg 93%
    01:00 -11°C° 0 mm 1 mps 758 mmHg 93%
    02:00 -11°C° 0 mm 1 mps 757 mmHg 93%
    03:00 -10°C° 0 mm 1 mps 757 mmHg 92%
    04:00 -10°C° 0.1 mm 1 mps 757 mmHg 92%
    05:00 -9°C° 0.1 mm 1 mps 756 mmHg 92%
    06:00 -9°C° 0.1 mm 1 mps 756 mmHg 91%
    07:00 -8°C° 0.1 mm 1 mps 756 mmHg 91%
    08:00 -8°C° 0.1 mm 1 mps 755 mmHg 92%
    09:00 -8°C° 0.1 mm 1 mps 755 mmHg 92%
    10:00 -7°C° 0.2 mm 1 mps 755 mmHg 92%
    11:00 -6°C° 0.2 mm 1 mps 754 mmHg 92%
    12:00 -6°C° 0.2 mm 2 mps 754 mmHg 91%
    13:00 -6°C° 0.3 mm 2 mps 754 mmHg 92%
    14:00 -6°C° 0.3 mm 2 mps 753 mmHg 93%
    15:00 -6°C° 0.3 mm 3 mps 753 mmHg 94%
    16:00 -7°C° 0.3 mm 3 mps 753 mmHg 94%
    17:00 -7°C° 0.3 mm 3 mps 753 mmHg 94%
    18:00 -7°C° 0.3 mm 3 mps 754 mmHg 94%
    19:00 -7°C° 0.2 mm 3 mps 754 mmHg 93%
    20:00 -8°C° 0.2 mm 3 mps 754 mmHg 93%
    21:00 -8°C° 0.2 mm 3 mps 754 mmHg 92%
    22:00 -8°C° 0.1 mm 3 mps 754 mmHg 92%
    23:00 -9°C° 0.1 mm 3 mps 754 mmHg 93%

    15 December, Saturday

    Time Temperature Precipitation Wind Pressure Humidity
    00:00 -9°C° 0.1 mm 3 mps 754 mmHg 93%
    01:00 -9°C° 0.1 mm 3 mps 755 mmHg 93%
    02:00 -9°C° 0.1 mm 2 mps 755 mmHg 93%
    03:00 -9°C° 0.1 mm 2 mps 755 mmHg 93%
    04:00 -9°C° 0.1 mm 2 mps 755 mmHg 93%
    05:00 -9°C° 0.1 mm 2 mps 755 mmHg 93%
    06:00 -9°C° 0.1 mm 2 mps 755 mmHg 93%
    07:00 -9°C° 0.1 mm 2 mps 755 mmHg 92%
    08:00 -9°C° 0.1 mm 2 mps 756 mmHg 92%
    09:00 -9°C° 0.1 mm 2 mps 756 mmHg 92%
    10:00 -9°C° 0 mm 2 mps 756 mmHg 91%
    11:00 -8°C° 0 mm 2 mps 755 mmHg 90%
    12:00 -8°C° 0 mm 2 mps 755 mmHg 89%
    13:00 -8°C° 0 mm 2 mps 755 mmHg 90%
    14:00 -8°C° 0 mm 2 mps 755 mmHg 90%
    15:00 -8°C° 0 mm 1 mps 755 mmHg 91%
    16:00 -8°C° 0 mm 1 mps 755 mmHg 91%
    17:00 -9°C° 0 mm 1 mps 755 mmHg 91%
    18:00 -9°C° 0 mm 1 mps 755 mmHg 91%
    19:00 -9°C° 0 mm 1 mps 754 mmHg 90%
    20:00 -9°C° 0 mm 1 mps 754 mmHg 90%
    21:00 -9°C° 0 mm 1 mps 754 mmHg 89%
    22:00 -9°C° 0 mm 1 mps 754 mmHg 88%
    23:00 -9°C° 0 mm 1 mps 753 mmHg 88%

    16 December, Sunday

    Time Temperature Precipitation Wind Pressure Humidity
    00:00 -9°C° 0 mm 1 mps 753 mmHg 87%
    01:00 -9°C° 0 mm 1 mps 752 mmHg 86%
    02:00 -9°C° 0 mm 1 mps 752 mmHg 86%
    03:00 -8°C° 0 mm 1 mps 752 mmHg 85%
    04:00 -8°C° 0.1 mm 1 mps 752 mmHg 88%
    05:00 -7°C° 0.1 mm 1 mps 751 mmHg 90%
    06:00 -6°C° 0.1 mm 0 mps 751 mmHg 92%
    07:00 -6°C° 0.1 mm 1 mps 751 mmHg 93%
    08:00 -6°C° 0.1 mm 1 mps 751 mmHg 93%
    09:00 -6°C° 0.1 mm 1 mps 752 mmHg 93%
    10:00 -4°C° 0.2 mm 1 mps 752 mmHg 93%
    11:00 -5°C° 0.2 mm 2 mps 752 mmHg 92%
    12:00 -4°C° 0.2 mm 2 mps 752 mmHg 92%
    13:00 -4°C° 0.2 mm 2 mps 752 mmHg 93%
    14:00 -4°C° 0.2 mm 2 mps 752 mmHg 94%
    15:00 -4°C° 0.2 mm 2 mps 751 mmHg 94%
    16:00 -4°C° 0.3 mm 2 mps 752 mmHg 95%
    17:00 -4°C° 0.3 mm 2 mps 752 mmHg 96%
    18:00 -4°C° 0.3 mm 2 mps 752 mmHg 96%
    19:00 -5°C° 0.3 mm 2 mps 752 mmHg 96%
    20:00 -5°C° 0.3 mm 2 mps 752 mmHg 96%
    21:00 -5°C° 0.3 mm 2 mps 752 mmHg 96%
    22:00 -6°C° 0.2 mm 2 mps 752 mmHg 96%
    23:00 -6°C° 0.2 mm 2 mps 752 mmHg 95%
    Show more